Location: *
(42.2249°N, 121.7817°W)
Time: 04:53:13
(UTC+00:00)

Daily predictions for brighter satellites

Satellite Brightness Start Highest point End
(mag) Time Altitude Azimuth Time Altitude Azimuth Time Altitude Azimuth
Cosmos 2333 Rocket 2.9 02:33:27 10° N 02:38:39 35° ENE 02:43:50 10° ESE
Cosmos 1378 3.4 02:36:02 10° N 02:39:42 48° E 02:43:21 10° SSE
GEOS 3 Rocket 4.0 02:35:51 10° ESE 02:40:44 47° NE 02:45:39 10° NNW
ATLAS 2AS CENTAUR R/B 3.4 02:36:59 10° NNW 02:44:20 45° NE 02:51:08 10° ESE
SL-8 R/B 3.8 02:39:42 10° WSW 02:44:29 82° NNW 02:49:20 10° ENE
Cosmos 1939 Rocket 3.0 02:43:05 10° SSE 02:46:48 47° ENE 02:50:31 10° N
HJ-1C 4.1 02:44:53 10° SE 02:47:56 33° ENE 02:51:00 10° N
Cosmos 2074 Rocket 4.0 02:41:52 10° N 02:48:04 62° E 02:54:11 10° SSE
Okean 1 Rocket 3.8 02:45:01 10° SSE 02:48:47 30° E 02:52:36 10° NNE
Cosmos 2237 Rocket 3.7 02:46:03 10° N 02:50:02 19° NE 02:54:00 10° E
USA 32 4.0 02:46:12 10° N 02:51:28 77° E 02:56:42 10° S
Okean 2 Rocket 3.7 02:47:53 10° SSW 02:52:18 64° W 02:56:47 10° N
COSMOS 2455 2.9 02:48:39 10° NNW 02:54:42 77° ENE 03:00:42 10° SE
CSL-04 Rocket 4.3 02:50:33 10° S 02:55:58 63° WSW 03:01:30 10° NNW
Cosmos 1743 4.3 02:53:29 10° SSW 02:57:06 39° WNW 03:00:45 10° N
GP-B 3.2 02:55:09 10° N 02:59:31 55° E 03:03:52 10° SSE
CZ-2D R/B 3.2 02:56:21 10° SSE 03:00:08 84° ENE 03:03:58 10° N
Ariane Rocket 2.9 02:58:39 10° SSE 03:03:41 79° ENE 03:08:46 10° N
Cosmos 2154 Rocket 4.1 03:03:52 10° N 03:09:57 54° ENE 03:16:00 10° SSE
BREEZE-M DEB (TANK) 3.2 03:11:04 10° W 03:13:02 29° SW 03:15:02 12° SSE
Cosmos 1975 4.5 03:09:25 10° SSW 03:13:08 38° WNW 03:16:54 10° N
Cosmos 1536 Rocket 3.8 03:09:47 10° NNW 03:14:06 71° W 03:18:24 10° S
Cosmos 1025 Rocket 3.1 03:11:16 10° N 03:15:32 82° W 03:19:48 10° S
MOS 1 4.3 03:09:57 10° SSE 03:15:34 65° ENE 03:21:13 10° N
Aureole 1 Rocket 3.1 03:10:25 10° NNW 03:15:42 77° ENE 03:19:39 10° SSE
YAOGAN 1 4.5 03:14:33 10° SSW 03:18:26 32° W 03:22:21 10° NNW
SL-16 R/B 4.1 03:16:24 10° NNE 03:19:07 13° NE 03:21:18 11° ENE
Cosmos 2333 4.3 03:14:43 10° NNW 03:20:24 81° WSW 03:26:07 10° SSE
Cosmos 1842 3.9 03:16:49 10° NNW 03:20:43 59° W 03:24:35 10° S
Cosmos 2184 Rocket 4.3 03:19:14 10° NNW 03:25:26 72° W 03:31:40 10° S
Cosmos 2219 Rocket 2.1 03:22:58 10° NNW 03:28:36 81° ENE 03:33:53 12° SSE
Okean 1-7 Rocket 4.5 03:24:44 10° NNE 03:28:37 29° ENE 03:29:58 25° ESE
SPOT 3 Rocket 3.7 03:25:12 13° SE 03:29:38 51° ENE 03:34:37 10° N
COSMOS 2428 2.7 03:24:01 10° NNW 03:29:44 84° ENE 03:35:13 11° SSE
FREGAT/IRIS 2.3 03:28:54 15° S 03:31:04 87° WSW 03:33:53 10° NNW
Cosmos 1544 3.4 03:30:51 10° SSW 03:34:24 67° W 03:38:00 10° N
Cosmos 405 Rocket 3.7 03:35:45 26° ENE 03:35:45 26° ENE 03:38:13 10° NNE
Cosmos 2360 Rocket 4.3 03:35:07 10° NW 03:39:47 27° WSW 03:44:26 10° SSW
SAR-Lupe-2 4.0 03:36:43 10° N 03:40:17 64° WNW 03:43:49 10° SSW
CZ-2C R/B 3.6 03:40:16 10° NNE 03:44:45 87° WNW 03:49:10 10° SSW
Cosmos 1140 Rocket 4.3 03:41:35 10° N 03:46:12 31° ENE 03:47:15 29° E
Cosmos 1461 4.4 03:42:42 10° WSW 03:46:25 35° NW 03:50:05 10° NNE
Meteor 1-15 Rocket 4.2 03:40:58 10° S 03:46:35 61° E 03:52:21 10° NNE
BREEZE-M DEB (TANK) 4.4 03:44:42 10° W 03:47:11 22° SSW 03:52:11 11° SSE
Cosmos 2219 3.1 03:45:01 10° SSW 03:50:42 68° ESE 03:56:26 10° NNE
Cosmos 2227 Rocket 2.5 03:46:27 10° S 03:51:39 40° ESE 03:56:54 10° NE
NOSS 3-4 (A) 3.8 03:44:50 10° NNW 03:51:54 73° NE 03:56:22 27° SE
NOSS 3-4 (C) 3.8 03:44:56 10° NNW 03:52:01 72° NE 03:56:26 28° SE
Cosmos 1371 Rocket 4.0 03:47:33 10° S 03:52:45 62° ESE 03:58:02 10° NNE
Cosmos 389 Rocket 2.3 03:53:15 10° N 03:56:34 65° ENE 03:56:34 65° ENE
ISS -1.6 03:54:22 10° SSW 03:55:12 16° SSW 03:55:12 16° SSW
Cosmos 962 Rocket 4.4 03:54:01 10° N 04:00:21 85° E 04:06:02 14° S
USA 186 2.6 03:58:51 26° SSW 04:00:28 53° W 04:03:50 10° NNW
H-2A R/B 1.8 03:58:41 33° SSE 04:00:53 72° ENE 04:05:53 10° N
ARGOS 3.1 03:58:48 31° SSE 04:01:26 70° ENE 04:06:47 10° N
Cosmos 2297 Rocket 2.2 03:57:10 10° S 04:02:38 52° ESE 04:08:07 10° NNE
NOSS 0 Rocket 3.9 03:57:03 10° NNW 04:03:17 88° ENE 04:06:36 30° SSE
Cosmos 1544 Rocket 4.3 04:06:12 36° NE 04:06:12 36° NE 04:09:21 10° NNE
Cosmos 1455 Rocket 3.1 04:05:56 56° E 04:05:56 56° E 04:10:15 10° NNE
Cosmos 676 Rocket 4.5 04:04:20 10° N 04:09:19 40° ENE 04:09:34 40° ENE
ASTEX 1 4.2 04:04:58 10° N 04:09:43 52° W 04:14:26 10° SSW
SJ-6B 3.7 04:11:21 23° SSW 04:13:42 50° W 04:17:43 10° NNW
Meteor 1-4 Rocket 3.0 04:10:29 10° N 04:13:15 51° N 04:13:15 51° N
SL-08 RB Rocket 3.6 04:14:10 63° ESE 04:14:38 68° ENE 04:19:17 10° N
Cosmos 1707 4.0 04:13:43 10° NNW 04:17:24 40° W 04:19:34 21° SSW
Meteor 1-24 Rocket 4.0 04:13:51 10° N 04:19:25 47° ENE 04:19:38 47° E
Cosmos 2333 Rocket 3.5 04:17:44 10° NW 04:22:54 36° WSW 04:27:30 13° SSW
ADEOS Rocket 3.5 04:15:38 10° NNE 04:23:00 89° ESE 04:30:47 10° SSW
DELTA 2 R/B (1) 3.9 04:18:18 10° SW 04:23:18 46° S 04:23:18 46° S
Resurs 1-3 3.5 04:23:54 82° S 04:24:05 88° WSW 04:28:31 10° NNW
MetOp-A 4.0 04:24:48 62° SE 04:25:37 75° ENE 04:30:58 10° N
Cosmos 1190 Rocket 3.9 04:21:06 10° NNW 04:26:26 87° WSW 04:27:21 62° SSE
Resurs 01 Rocket 1.7 04:27:30 69° NNE 04:27:30 69° NNE 04:31:32 10° N
SL-24 R/B 4.2 04:28:07 72° NE 04:28:07 72° NE 04:32:37 10° N
Cosmos 2341 Rocket 4.5 04:27:02 10° NNW 04:33:08 59° W 04:37:45 18° SSW
Cosmos 2181 Rocket 4.1 04:27:44 10° SSW 04:33:57 74° W 04:40:18 10° N
Cosmos 1023 Rocket 4.3 04:29:30 10° NNW 04:34:41 84° ENE 04:34:43 84° E
Cosmos 2237 Rocket 2.2 04:29:02 10° NNW 04:34:44 76° WSW 04:35:52 57° S
Meteor 2-5 Rocket 3.7 04:29:11 10° N 04:35:03 87° E 04:36:07 62° SSE
ATLAS 2AS CENTAUR R/B 3.6 04:28:15 10° NW 04:35:21 46° WSW 04:39:12 24° S
Cosmos 1980 4.0 04:38:05 10° NNW 04:43:39 60° WSW 04:44:45 50° SSW
CZ-2C R/B 3.1 04:45:26 73° SW 04:45:44 76° WSW 04:51:12 10° NNW
Meteor 1-22 Rocket 4.2 04:50:12 81° SSE 04:50:29 86° E 04:56:38 10° N
Cosmos 2056 Rocket 4.4 04:46:41 10° SW 04:51:56 49° WNW 04:57:12 10° N
Cosmos 2218 Rocket 4.2 04:47:50 10° NNW 04:54:11 69° W 04:55:49 49° SSW
DMSP B5D2-2 4.4 04:53:43 10° N 04:58:09 62° N 04:58:09 62° N
Cosmos 2366 rocket 4.3 04:53:38 10° NNW 04:59:57 66° W 05:01:17 53° SSW
SL-16 R/B 2.6 04:58:35 10° NNW 05:03:11 57° N 05:03:11 57° N
Terra 4.2 05:16:33 14° NNE 05:16:33 14° NNE 05:17:24 10° N
CZ-2C R/B 3.9 05:20:06 10° N 05:23:20 37° N 05:23:20 37° N
Cosmos 2227 Rocket 3.8 05:30:46 10° WSW 05:35:45 32° NW 05:40:49 10° N
Cosmos 2297 Rocket 4.2 05:42:20 10° WSW 05:46:58 25° NW 05:51:38 10° N
USA 234 4.5 05:54:24 32° NNE 05:54:30 32° NNE 06:00:10 10° NW
Cosmos 2278 Rocket 4.3 09:48:34 21° N 09:48:34 21° N 09:50:32 10° NNE
Resurs 1-4 Rocket 4.3 09:42:48 10° NNE 09:44:28 21° NNE 09:44:28 21° NNE
ATLAS 3B R/B 4.3 09:59:20 22° E 09:59:20 22° E 10:03:38 10° ENE
Cosmos 1943 Rocket 4.0 10:12:34 25° E 10:12:34 25° E 10:15:55 10° NE
SL-16 R/B 4.3 10:21:09 21° NNW 10:21:09 21° NNW 10:23:08 10° NNW
CZ-2D R/B 4.0 10:16:17 10° N 10:18:20 24° N 10:18:20 24° N
ATLAS 5 CENTAUR R/B 4.3 10:23:45 15° N 10:23:45 15° N 10:25:07 10° NNE
Lacrosse 5 4.3 10:27:34 14° N 10:28:50 15° N 10:31:49 10° NE
ARIANE 5 R/B 3.9 10:25:56 10° NNE 10:29:03 35° NE 10:29:03 35° NE
CENTAUR R/B 3.3 10:40:44 40° ESE 10:40:44 40° ESE 10:46:54 10° NE
USA 238 DEB 3.7 10:57:48 64° NW 10:57:48 64° NW 11:04:28 10° NNE
USA 238 3.7 10:57:53 65° NW 10:57:53 65° NW 11:04:36 10° NNE
Cosmos 2369 Rocket 2.3 11:05:48 72° ESE 11:05:48 72° ESE 11:11:25 10° NNE
Atlas Centaur 2 3.8 11:09:11 29° SSE 11:09:11 29° SSE 11:14:26 10° ESE
Cosmos 1782 4.5 11:10:18 31° NNE 11:10:18 31° NNE 11:12:34 10° NNE
ADEOS II 2.6 11:10:56 10° N 11:15:00 48° NNW 11:15:00 48° NNW
Lacrosse 5 rocket 2.4 11:17:24 45° NE 11:17:26 45° NE 11:21:40 10° ESE
Cosmos 1400 Rocket 4.2 11:20:28 33° ESE 11:20:42 33° E 11:24:14 10° NNE
Meteor 1-20 Rocket 4.3 11:15:58 10° NNW 11:20:32 60° NW 11:20:32 60° NW
Unknown 4.5 11:22:58 48° ENE 11:22:58 48° ENE 11:26:03 10° NE
Unknown 4.4 11:24:56 51° ENE 11:24:56 51° ENE 11:28:06 10° NE
Unknown 4.3 11:26:05 52° ENE 11:26:05 52° ENE 11:29:19 10° NE
Spot 4 Rocket 4.4 11:22:13 10° N 11:26:29 50° NW 11:26:29 50° NW
Resurs 1-4 Rocket 4.2 11:24:02 10° NNW 11:25:33 14° NW 11:25:33 14° NW
Cosmos 1707 Rocket 3.7 11:27:41 70° ENE 11:27:41 70° ENE 11:31:54 10° NNE
Unknown 4.2 11:29:14 57° ENE 11:29:14 57° ENE 11:32:35 10° NE
Unknown 4.1 11:30:52 59° ENE 11:30:52 59° ENE 11:34:17 10° NE
NOSS 3-3 (A) 4.4 11:24:10 10° NW 11:31:45 68° WSW 11:40:00 10° SSE
NOSS 3-3 (C) 4.4 11:24:16 10° NW 11:31:51 68° WSW 11:40:06 10° SSE
Unknown 4.0 11:32:39 61° NE 11:32:39 61° NE 11:36:08 10° NE
Iridium 4 Rocket 4.0 11:30:03 25° SSE 11:32:25 48° E 11:36:34 10° NNE
Unknown 4.2 11:33:35 53° NNE 11:33:35 53° NNE 11:36:51 10° NE
Unknown 3.9 11:34:04 64° NE 11:34:04 64° NE 11:37:37 10° NE
Unknown 3.9 11:35:39 66° NE 11:35:39 66° NE 11:39:16 10° NE
USA 215 4.2 11:29:38 10° ENE 11:35:42 39° SE 11:39:26 22° S
Cosmos 220 Rocket 3.9 11:37:18 81° NE 11:37:18 81° NE 11:41:24 10° NNE
Unknown 3.9 11:38:05 63° NNE 11:38:05 63° NNE 11:41:40 10° NE
Unknown 3.8 11:38:51 70° NNE 11:38:51 70° NNE 11:42:35 10° NE
Cosmos 1733 Rocket 4.2 11:35:05 10° N 11:39:23 45° ENE 11:43:38 10° SSE
Unknown 3.7 11:40:24 71° NNE 11:40:24 71° NNE 11:44:13 10° NE
PSLV R/B 4.4 11:35:56 10° NNE 11:40:12 49° E 11:42:13 27° SSE
Unknown 3.7 11:42:03 72° N 11:42:03 72° N 11:45:55 10° NE
NOSS 3-2 (A) 4.0 11:41:43 37° WNW 11:42:44 39° NW 11:48:54 10° NNE
Unknown 3.6 11:43:37 72° N 11:43:37 72° N 11:47:33 10° NE
NOSS 3-2 (C) 3.6 11:44:11 46° W 11:45:24 54° NW 11:51:51 10° NNE
Unknown 3.6 11:46:51 70° NNW 11:46:51 70° NNW 11:50:54 10° NE
PSLV R/B 4.5 11:43:09 10° SSE 11:47:14 58° ENE 11:51:18 10° N
Unknown 3.7 11:48:44 61° NNW 11:48:44 61° NNW 11:52:50 10° NE
ATLAS 3B R/B 2.6 11:46:36 44° WSW 11:48:46 70° NW 11:55:22 10° NNE
Unknown 3.7 11:50:19 60° NW 11:50:22 60° NNW 11:54:29 10° NE
Unknown 3.7 11:50:33 64° NW 11:50:37 64° NNW 11:54:44 10° NE
CZ-2C R/B 4.0 11:47:40 10° N 11:50:12 31° NNW 11:50:12 31° NNW
Unknown 3.6 11:53:14 62° NW 11:53:25 63° NNW 11:57:33 10° NE
